www.pogodaiklimat.ru

Погода и климат >> Архив погоды >> Россия >> Калининградская область >> Рыбачий


ПОГОДА в Рыбачем

  • Прогноз погоды в Рыбачем
  • Монитор погоды в Рыбачем

АРХИВ ПОГОДЫ в Рыбачем

Время (UTC), дата Ветер
(напр.,м/с)
 
Видим.   Явления Облачность Т
(С)
Тd
(С)
f
(%)
Тe
(С)
Тes
(С)
Комфортность P
(гПа)
Po
(гПа)
Тmin
(С)
Tmax
(С)
R
(мм)
R24
(мм)
S
(см)
12 13.02 З 7-14
{15}
н/о н/о +5.4 +4.1 91 -0 -0 1014.9 1014.4
15 13.02 З 7-12
{15}
н/о н/о +4.8 +3.2 89 -1 -1 1017.2 1016.7
18 13.02 З 6-12
{13}
н/о н/о +4.3 +3.0 91 -1 -1 1020.6 1020.1
21 13.02 З 4-9
{12}
н/о н/о +3.7 +3.0 95 -1 -1 1022.2 1021.7
00 14.02 З 5-9
{9}
н/о н/о +4.0 +3.0 93 -1 -1 1023.6 1023.1
03 14.02 З 3-6
{10}
н/о н/о +3.7 +2.4 91 -0 -0 1025.2 1024.7 +3.5
06 14.02 З 4-7
{8}
н/о н/о +3.1 +2.6 97 -2 -2 1027.7 1027.2 +3.1
09 14.02 З 5-9
{9}
н/о н/о +3.4 +3.3 99 -2 -2 1029.2 1028.7
12 14.02 З 4-8
{9}
н/о н/о +3.0 +3.0 100 -2 -2 1030.1 1029.6
15 14.02 З 4-8
{8}
н/о н/о +4.1 +4.1 100 -1 -1 1029.8 1029.3
18 14.02 З 5-8
{9}
н/о н/о +3.7 +3.7 100 -2 -2 1030.2 1029.6 +4.3
21 14.02 ЮЗ 4-8
{9}
н/о н/о +3.9 +3.9 100 -1 -1 1029.7 1029.2
00 15.02 ЮЗ 5-8
{10}
н/о н/о +4.1 +3.9 99 -1 -1 1029.1 1028.6
03 15.02 ЮЗ 4-7
{11}
н/о н/о +3.3 +3.3 100 -2 -2 1028.2 1027.7 +3.3
06 15.02 ЮЗ 3-6
{8}
н/о н/о +3.7 +3.5 99 -0 -0 1028.3 1027.8 +3.3
09 15.02 ЮЗ 4-8
{9}
н/о н/о +4.1 +4.1 100 -1 -1 1029.3 1028.8
12 15.02 ЮЗ 5-11
{9}
н/о н/о +4.4 +4.4 100 -1 -1 1028.5 1028.0
15 15.02 ЮЗ 4-8
{11}
н/о н/о +3.9 +3.9 100 -1 -1 1028.4 1027.9
18 15.02 ЮЗ 4-9
{10}
н/о н/о +3.1 +3.1 100 -2 -2 1028.5 1028.0 +4.4
21 15.02 ЮЗ 4-7
{11}
н/о н/о +2.9 +2.9 100 -2 -2 1028.2 1027.7
00 16.02 Ю 3-5
{9}
н/о н/о +2.2 +2.2 100 -2 -2 1027.6 1027.1
03 16.02 Ю 3-5
{5}
н/о н/о +1.1 +1.1 100 -4 -4 1025.8 1025.3 +0.6
06 16.02 Ю 4-5
{5}
н/о н/о +0.1 +0.1 100 -6 -6 1024.9 1024.4 -0.2
09 16.02 Ю 4-6
{7}
н/о н/о +2.4 +1.0 90 -3 -3 1023.9 1023.4
12 16.02 Ю 6-9
{10}
н/о н/о +6.2 +1.5 72 +2 +2 1022.1 1021.6
15 16.02 Ю 5-8
{9}
н/о н/о +6.4 +1.8 72 +2 +2 1019.8 1019.3
18 16.02 ЮЗ 5-9
{9}
н/о н/о +5.7 +2.1 78 +1 +1 1018.3 1017.8 +8.0
21 16.02 ЮЗ 6-12
{12}
н/о н/о +7.5 +2.4 70 +3 +3 1017.4 1017.0
00 17.02 З 6-11
{14}
н/о н/о +4.8 +3.3 90 -1 -1 1017.4 1016.9
03 17.02 З 5-8
{11}
н/о н/о +4.6 +3.8 95 -0 -0 1018.0 1017.5 +3.2
06 17.02 З 5-9
{9}
н/о н/о +4.4 +4.0 97 -1 -1 1018.6 1018.1 +3.8
09 17.02 З 4-7
{9}
н/о н/о +4.4 +4.1 98 -0 -0 1020.6 1020.1
12 17.02 З 3-6
{8}
н/о н/о +4.2 +3.9 98 0 0 1021.2 1020.7
15 17.02 З 4-7
{7}
н/о н/о +4.0 +3.9 99 -1 -1 1021.6 1021.1
18 17.02 З 5-7
{8}
н/о н/о +3.3 +3.3 100 -2 -2 1022.5 1022.0 +4.8
21 17.02 З 3-5
{7}
н/о н/о +3.3 +3.3 100 -1 -1 1022.9 1022.4
00 18.02 ЮЗ 2-4
{6}
н/о н/о +2.5 +2.5 100 -1 -1 1023.3 1022.8
03 18.02 Ю 3-4
{4}
н/о н/о +1.7 +1.7 100 -3 -3 1023.1 1022.6 +1.6
06 18.02 Ю 1-3
{4}
н/о н/о +1.2 +1.2 100 -1 -1 1023.4 1022.9 +1.2
09 18.02 ЮВ 2-4
{4}
н/о н/о +1.1 +1.1 100 -3 -3 1024.0 1023.4
12 18.02 ЮВ 3-5
{6}
н/о н/о +1.4 +1.4 100 -3 -3 1022.5 1022.0
15 18.02 В 3-4
{5}
н/о н/о +1.2 +1.2 100 -4 -4 1020.3 1019.8
18 18.02 ЮВ 3-4
{5}
н/о н/о +0.9 +0.9 100 -4 -4 1018.8 1018.3 +1.7
21 18.02 ЮВ 3-4
{6}
н/о н/о +0.8 +0.8 100 -4 -4 1017.5 1017.0
00 19.02 ЮВ 2-3
{5}
н/о н/о +0.3 +0.3 100 -4 -4 1015.8 1015.3
03 19.02 ЮВ 2-4
{5}
н/о н/о +0.3 +0.3 100 -4 -4 1012.8 1012.3 -0.1
06 19.02 Ю 3-4
{5}
н/о н/о -0.5 -0.5 100 -6 -6 1010.8 1010.3 -0.4
09 19.02 Ю 3-6
{6}
н/о н/о +1.7 +1.6 99 -3 -3 1008.5 1008.0
12 19.02 ЮЗ 5-9
{9}
н/о н/о +7.7 +3.1 73 +4 +4 1006.6 1006.2
15 19.02 ЮЗ 6-11
{14}
н/о н/о +4.6 +3.7 94 -1 -1 1007.3 1006.8
18 19.02 ЮЗ 5-9
{12}
н/о н/о +4.5 +3.9 96 -1 -1 1007.3 1006.8 +7.8
21 19.02 ЮЗ 5-9
{13}
н/о н/о +5.2 +3.9 91 +1 +1 1006.5 1006.0

 

Местоположение метеостанции Рыбачий (Калининградская область, Россия): широта 55.16 долгота 20.84 высота над уровнем моря 3 м.

В архиве по умолчанию представлена погода в Рыбачем за последнюю неделю. Архивные данные за месяц целиком и за предыдущие месяцы, начиная с января 2011 года, Вы можете получить, выбрав интересующий диапазон дат из раскрывающегося списка и нажав кнопку "Ввод!".


*Определитесь, кто Вы:
робот инопланетянин человек

Внимание! Время в таблицах - всемирное. Для получения местного времени необходимо прибавить поправку, которая равна 2 ч.

Смотрите также архив погоды в соседних городах и на ближайших метеорологических станциях:

Погода в Ниде (Литва) (21 км)
Погода в Шилуте (Литва) (44 км)
Погода в Пионерском (Калининградская область, Россия) (46 км)
Погода в Калининграде (Калининградская область, Россия) (53 км)
Погода в Рыбном Порту (Калининградская область, Россия) (57 км)
Погода в Kлайпеде (Литва) (65 км)
Погода в Советске (Калининградская область, Россия) (70 км)
Погода в Балтийске (Калининградская область, Россия) (84 км)
Погода в Черняховске (Калининградская область, Россия) (85 км)
Погода в Железнодорожном (Калининградская область, Россия) (93 км)

Пояснения к столбцам:

Ветер - указаны скорость ветра в м/с - средняя за 10 мин, порывы в срок и между сроками (в фигурных скобках) и направление, откуда дует ветер: С - северный, СВ - северо-восточный, В - восточный, ЮВ - юго-восточный, Ю - южный, ЮЗ - юго-западный, З - западный, СЗ - северо-западный.
Видимость - горизонтальная дальность видимости в метрах или километрах. При видимости от 1 до 10 км при отсутствии осадков обычно наблюдается дымка, при ухудшении видимости до 1 км и менее - туман. В сухую погоду видимость может ухудшаться дымом, пылью или мглою.
Явления - указаны атмосферные явления, наблюдавшиеся в срок или в последний час перед сроком; фигурными скобками обозначены явления, наблюдавшиеся между сроками (за 1-3 часа до срока); квадратными скобками обозначены град или гололедные отложения с указанием их диаметра в мм.
Облачность - указаны через наклонную черту общая и нижняя облачность в баллах и высота нижней границы облаков в метрах; квадратными скобками обозначены формы облаков: Ci - перистые, Cs - перисто-слоистые, Cc - перисто-кучевые, Ac - высококучевые, As - высокослоистые, Sc - слоисто-кучевые, Ns - слоисто-дождевые, Cu - кучевые, Cb - кучево-дождевые. Подробнее классификацию облаков см. в Атласе облаков (PDF).
T - Температура воздуха - температура, измеренная на высоте 2 м над землей.
Td - Температура точки росы - температура, при понижении до которой содержащийся в воздухе водяной пар достигнет насыщения.
f - Относительная влажность воздуха - влажноcть воздуха, измеренная на высоте 2 м над землей.
Te - Эффективная температура - температура, которую ощущает одетый по сезону человек в тени. Характеристика душности погоды. При расчете учитывается влияние влажности воздуха и скорости ветра на теплоощущения человека.
Tes - Эффективная температура на солнце - температура, которую ощущает человек, с поправкой на солнечный нагрев. Характеристика знойности погоды. Зависит от высоты солнца над горизонтом, облачности и скорости ветра. Ночью, в пасмурную погоду, а также при ветре 12 м/с и более поправка равна нулю.
P - Атмосферное давление - приведенное к уровню моря атмосферное давление.
Po - Атмосферное давление - измеренное на уровне метеостанции атмосферное давление.
Tmin - Минимальная температура - минимум температуры воздуха на высоте 2 м над землей.
Tmax - Максимальная температура - максимум температуры воздуха на высоте 2 м над землей.
R - Количество осадков - Количество выпавших осадков за период времени, мм. При наведении курсора мыши на число - период времени, за который выпало указанное количество осадков.
R24 - Количество осадков - Количество выпавших осадков за 24 часа, мм.
S - Снежный покров - Высота снежного покрова, см. При наведении курсора мыши на число - состояние снежного покрова и степень покрытия местности в баллах.